Location: Boca do Mato
(22.9085°S, 43.2930°W)
Time: 22:11:52
(UTC+00:00)

Cosmos 1570 Rocket - Pass Details

Date: 14 July 2020
Orbit: 763 x 788 km, 74.1° (Epoch: 10 August)

Event Time Altitude Azimuth Distance (km) Brightness Sun altitude
Rises 07:57:34 0° 345° (NNW) 3,249 7.3 -21.7°
Reaches altitude 10° 07:59:56 10° 344° (NNW) 2,331 6.5 -21.2°
Maximum altitude 08:05:15 82° 257° (WSW) 801 3.9 -20.0°
Drops below altitude 10° 08:10:39 10° 168° (SSE) 2,367 6.5 -18.8°
Sets 08:13:04 0° 167° (SSE) 3,302 7.3 -18.3°
